TimeEDT,TemperatureF,Dew PointF,Humidity,Sea Level PressureIn,VisibilityMPH,Wind Direction,Wind SpeedMPH,Gust SpeedMPH,PrecipitationIn,Events,Conditions,WindDirDegrees,DateUTC
12:19 AM,71.6,66.2,83,30.14,10.0,North,10.4,19.6,N/A,,Overcast,360,2013-09-17 04:19:00
12:56 AM,71.1,66.0,84,30.15,10.0,North,12.7,-,0.01,,Overcast,360,2013-09-17 04:56:00
1:56 AM,71.1,64.0,78,30.16,10.0,North,15.0,21.9,N/A,,Overcast,10,2013-09-17 05:56:00
2:56 AM,69.1,63.0,81,30.15,10.0,NNE,15.0,23.0,N/A,,Overcast,20,2013-09-17 06:56:00
3:56 AM,69.1,62.1,78,30.15,10.0,NNE,15.0,26.5,N/A,,Overcast,20,2013-09-17 07:56:00
4:56 AM,70.0,62.1,76,30.16,10.0,NNE,15.0,24.2,N/A,,Partly Cloudy,20,2013-09-17 08:56:00
5:56 AM,70.0,61.0,73,30.18,10.0,NNE,13.8,24.2,N/A,,Clear,20,2013-09-17 09:56:00
6:56 AM,71.1,61.0,70,30.19,10.0,NNE,13.8,20.7,N/A,,Clear,20,2013-09-17 10:56:00
7:56 AM,71.1,62.1,73,30.21,10.0,North,15.0,20.7,N/A,,Clear,10,2013-09-17 11:56:00
8:56 AM,73.0,62.1,68,30.24,10.0,NNE,18.4,25.3,N/A,,Clear,20,2013-09-17 12:56:00
9:56 AM,73.9,62.1,66,30.26,10.0,NNE,16.1,24.2,N/A,,Clear,30,2013-09-17 13:56:00
10:56 AM,75.0,63.0,66,30.27,10.0,NNE,19.6,26.5,N/A,,Scattered Clouds,20,2013-09-17 14:56:00
11:56 AM,75.9,62.1,62,30.27,10.0,NE,16.1,27.6,N/A,,Scattered Clouds,40,2013-09-17 15:56:00
12:56 PM,77.0,62.1,60,30.26,10.0,NE,19.6,26.5,N/A,,Scattered Clouds,40,2013-09-17 16:56:00
1:56 PM,77.0,63.0,62,30.25,10.0,NE,18.4,28.8,N/A,,Partly Cloudy,40,2013-09-17 17:56:00
2:56 PM,75.0,61.0,62,30.24,10.0,NE,21.9,34.5,N/A,,Mostly Cloudy,50,2013-09-17 18:56:00
3:56 PM,75.0,60.1,60,30.24,10.0,NE,20.7,31.1,N/A,,Partly Cloudy,50,2013-09-17 19:56:00
4:56 PM,73.9,57.9,57,30.24,10.0,NE,16.1,25.3,N/A,,Mostly Cloudy,40,2013-09-17 20:56:00
5:56 PM,73.0,57.0,57,30.24,10.0,NE,17.3,24.2,N/A,,Mostly Cloudy,40,2013-09-17 21:56:00
6:56 PM,70.0,55.0,59,30.24,10.0,NNE,15.0,23.0,N/A,,Partly Cloudy,30,2013-09-17 22:56:00
7:56 PM,69.1,53.1,57,30.25,10.0,NNE,17.3,25.3,N/A,,Clear,30,2013-09-17 23:56:00
8:56 PM,68.0,53.1,59,30.26,10.0,NNE,20.7,27.6,N/A,,Clear,30,2013-09-18 00:56:00
9:56 PM,66.9,54.0,63,30.27,10.0,NNE,17.3,26.5,N/A,,Clear,30,2013-09-18 01:56:00
10:56 PM,66.9,54.0,63,30.27,10.0,NNE,15.0,25.3,N/A,,Clear,30,2013-09-18 02:56:00
11:56 PM,68.0,55.0,63,30.26,10.0,NNE,15.0,23.0,N/A,,Partly Cloudy,30,2013-09-18 03:56:00